Theta_e
348 351 354 358 372 370 366 360 355 355 351 350 353 356 358 358 354 362 347 346 344 344 350 353 344 345 347 350 350 351 351 351 352 352 352 353 353 353 353 351 344 340 346 352 352 353 353 354 354
349 355 357 356 369 373 368 358 359 356 356 353 354 356 355 356 351 349 349 348 346 345 347 352 347 342 343 347 349 350 353 353 352 352 353 352 353 351 351 352 350 348 351 348 354 354 351 351 352
348 356 363 363 367 375 374 358 358 357 355 354 353 353 354 354 351 351 348 348 350 349 349 349 344 341 341 345 347 349 352 352 353 353 353 352 352 349 347 347 348 347 348 351 352 354 354 351 351
351 357 359 368 371 367 367 359 357 356 353 353 356 359 353 349 350 349 348 349 348 351 355 350 343 344 344 350 350 352 352 353 353 354 353 348 347 343 345 349 353 354 352 351 352 353 354 355 352
350 360 368 368 362 359 357 357 355 358 356 356 356 357 355 350 350 349 349 348 350 355 355 354 351 351 350 350 352 352 352 351 350 351 349 347 349 354 350 346 349 346 353 352 348 350 351 348 349
354 354 370 368 361 356 355 356 357 356 356 356 356 357 356 350 349 350 349 348 351 353 352 354 352 350 349 350 350 350 352 348 346 348 348 347 348 353 346 345 345 347 352 351 350 352 351 348 346
354 356 363 362 359 355 352 355 359 358 356 358 353 356 353 349 349 350 350 350 352 351 353 352 352 353 351 350 348 347 346 344 345 344 345 346 351 351 352 345 345 351 351 351 352 351 351 351 352
355 348 350 357 361 353 350 351 356 354 358 354 353 355 354 349 348 350 349 351 352 353 351 351 351 352 352 353 349 346 345 346 350 349 351 350 346 346 345 342 344 351 351 350 351 351 350 350 351
345 351 349 348 350 348 350 350 349 351 356 355 355 351 349 348 348 349 350 351 352 351 349 351 348 350 351 350 346 344 344 340 343 344 345 346 348 345 343 344 347 349 352 351 349 351 350 350 348
347 349 346 343 345 346 347 347 353 355 356 356 357 353 349 347 347 349 350 351 351 348 347 347 349 350 350 350 334 343 332 330 333 332 333 341 347 338 334 337 345 343 345 346 350 352 347 349 348
344 349 347 349 346 347 348 348 351 352 360 357 358 355 350 347 347 348 349 351 349 347 347 348 348 350 349 348 332 333 330 337 339 334 337 331 342 340 335 340 344 341 345 347 346 348 349 346 346
342 345 345 343 347 347 354 351 347 349 358 354 353 351 348 348 349 348 347 347 348 349 348 348 348 350 349 347 339 331 334 336 337 336 340 338 335 347 346 346 348 344 347 347 348 347 348 344 345
342 340 342 343 346 344 346 348 348 351 352 351 353 350 348 347 349 349 348 347 348 348 348 347 349 349 350 348 344 338 334 340 340 339 340 339 344 347 347 345 348 345 348 348 349 349 346 347 345
339 339 341 342 342 346 347 354 349 351 350 351 350 349 348 347 347 347 347 348 348 349 348 347 349 347 351 347 343 340 339 344 342 343 347 348 347 346 347 347 343 345 347 347 348 347 347 347 344
337 340 340 341 343 347 344 354 353 351 349 350 348 348 348 346 346 347 348 348 350 350 350 350 350 351 351 349 346 346 341 346 346 344 346 345 349 348 347 349 345 342 349 348 348 348 347 345 345
337 340 343 339 341 347 349 356 353 350 351 350 349 348 348 347 347 348 348 348 351 352 351 349 352 354 353 353 350 346 344 348 347 348 347 346 347 349 350 346 347 345 349 349 348 347 347 344 345
337 344 343 339 339 344 345 352 353 351 350 349 348 348 349 349 349 348 348 349 350 352 352 353 353 353 353 352 350 349 343 346 347 347 347 348 347 347 348 345 342 348 351 350 350 349 348 348 348
340 342 339 340 337 340 345 348 352 350 351 349 351 349 349 349 352 350 351 350 351 351 352 352 353 351 352 351 351 351 350 349 349 348 347 347 347 347 348 347 343 350 348 347 349 348 348 347 349
339 338 337 337 336 336 340 346 349 350 351 350 352 350 351 348 350 352 351 349 352 353 353 353 354 353 354 354 353 351 350 349 349 350 349 348 349 348 347 349 348 347 352 349 349 350 350 346 348
337 335 336 336 335 335 339 343 347 348 347 350 353 352 350 350 349 349 350 352 349 354 354 355 355 356 355 354 353 353 351 350 349 351 351 351 351 349 350 348 349 350 349 351 352 353 354 350 348
336 335 338 337 335 334 337 338 352 347 344 349 349 351 346 350 350 352 349 349 350 354 355 358 358 358 357 357 354 354 354 352 352 344 353 353 351 351 350 351 349 351 351 352 352 351 353 349 348
336 337 334 334 334 335 334 338 347 340 346 345 348 349 339 346 351 353 351 350 350 356 356 358 359 361 359 358 357 355 353 349 352 350 348 352 352 349 353 347 347 351 353 352 348 351 351 351 348
336 335 333 332 333 334 336 335 346 344 341 346 345 350 353 352 351 351 352 351 351 353 356 359 360 361 361 360 358 356 356 356 355 354 353 351 354 353 353 352 349 352 350 351 350 351 351 351 345
334 333 333 332 333 334 334 336 345 353 353 349 345 347 351 352 351 352 350 351 352 354 355 357 362 363 361 363 361 357 356 354 354 352 353 356 356 355 356 354 353 349 352 352 351 348 351 352 349
334 333 333 335 334 335 340 344 351 350 346 347 349 349 347 349 350 353 353 352 352 354 355 357 363 365 365 364 363 362 359 356 356 356 352 354 355 353 349 351 352 351 350 347 350 350 351 351 353
332 331 332 339 341 344 344 350 350 343 340 344 346 347 347 346 349 350 353 354 353 354 354 356 364 365 365 365 364 363 364 362 361 358 354 353 354 353 352 347 334 349 352 349 348 348 351 350 351
333 334 333 332 333 340 345 352 350 346 343 344 351 349 347 346 347 353 353 354 355 355 355 355 362 364 365 365 364 364 363 360 361 358 357 360 358 355 353 353 350 351 354 352 349 348 349 350 352
332 333 334 332 338 343 355 351 367 356 353 347 352 350 348 350 352 353 353 356 356 356 357 356 361 362 363 363 363 363 361 360 358 360 359 359 352 352 353 353 353 351 352 353 353 354 354 352 350
332 332 333 335 337 343 352 346 353 347 344 347 354 357 357 358 358 357 356 356 356 356 356 357 359 361 361 360 360 359 360 359 359 358 357 349 354 355 355 354 355 356 355 351 353 353 354 354 351
333 332 334 334 342 339 346 346 347 347 349 357 358 358 357 357 357 357 357 361 363 362 361 361 359 359 359 358 359 359 356 353 351 350 352 352 344 342 344 345 351 353 350 353 354 354 355 353 354
Wind_Speed
13 14 13 6 6 1 7 12 12 6 16 16 14 15 17 14 13 8 31 28 30 27 24 21 21 20 19 20 19 17 16 14 14 14 13 13 13 12 12 12 13 12 12 12 11 11 12 11 12
11 18 12 6 3 2 9 12 7 17 20 14 17 8 20 21 22 25 23 31 27 27 24 22 21 20 19 19 18 17 14 13 12 12 11 10 9 9 8 9 9 9 8 9 9 8 9 11 11
12 16 2 6 4 6 3 14 17 15 13 9 7 16 9 21 25 20 31 30 28 24 23 23 22 19 19 18 17 16 14 12 11 10 9 8 7 6 6 5 5 5 6 6 6 7 7 8 9
11 9 4 3 12 11 9 11 15 8 8 11 15 13 10 23 19 32 30 30 26 28 24 23 21 18 18 18 18 15 14 12 11 10 8 6 5 4 3 2 2 3 5 6 7 7 8 9 9
17 8 4 7 10 14 11 18 11 11 7 12 17 18 17 15 25 29 29 26 29 27 24 22 21 19 18 17 16 13 12 11 9 8 6 5 4 2 0 1 2 2 4 5 6 7 6 7 8
9 3 6 2 9 16 15 14 10 11 12 19 19 15 9 22 22 33 25 26 28 26 25 22 21 20 18 17 14 12 11 9 7 6 5 3 1 1 2 3 3 4 5 5 6 6 6 7 10
6 6 8 18 12 12 6 16 16 3 14 9 18 18 14 19 23 34 26 29 23 27 26 23 19 18 17 16 14 12 10 8 7 6 3 3 3 4 5 5 5 6 6 5 6 7 7 8 9
4 2 12 10 4 10 10 7 15 8 19 13 7 11 17 22 23 29 33 25 25 27 23 23 20 17 16 13 14 12 12 10 8 6 4 2 3 8 8 9 8 7 8 7 6 6 7 8 9
9 2 6 11 12 6 7 12 2 10 15 8 13 14 22 25 25 27 32 27 20 22 21 22 19 19 18 16 14 13 11 5 5 4 2 3 4 8 9 11 11 10 9 9 8 8 8 8 9
5 6 12 12 13 10 12 4 8 12 13 14 14 19 26 25 22 27 26 22 26 21 18 21 22 21 18 18 14 12 10 12 11 11 9 4 6 7 7 15 14 11 9 9 9 8 8 8 7
7 10 10 21 1 16 4 7 15 17 10 14 17 16 18 23 21 17 25 31 29 28 22 21 21 24 21 22 16 16 14 12 11 13 14 16 6 13 24 10 14 10 8 8 8 7 7 8 12
5 11 16 3 6 11 19 11 16 11 20 19 17 16 15 16 18 13 15 16 26 28 23 24 21 21 19 19 16 17 12 12 12 15 10 14 16 9 8 28 12 4 12 8 11 12 12 5 12
11 6 11 8 9 7 13 15 14 14 18 18 20 15 15 14 20 24 23 18 25 24 21 20 23 20 17 17 16 15 12 11 10 10 8 11 9 11 5 6 6 6 4 8 9 10 12 12 8
7 4 9 9 9 5 15 18 13 15 14 17 17 17 17 16 19 19 20 11 20 20 19 16 20 21 16 17 16 13 11 11 8 5 6 9 10 8 8 4 6 4 2 7 7 7 9 9 12
12 11 10 5 9 11 15 10 19 16 15 15 15 14 16 14 20 20 29 22 22 22 21 22 19 17 18 17 16 14 12 3 5 7 9 7 10 9 5 4 6 7 9 5 8 9 7 10 10
10 11 6 7 8 14 22 10 16 17 14 14 17 14 13 12 17 23 19 20 21 24 26 26 22 21 20 16 18 17 14 14 8 7 8 8 10 6 6 7 5 6 11 12 12 14 14 13 11
9 10 10 10 8 17 8 14 17 15 16 15 14 13 16 15 18 18 15 20 21 27 24 29 28 23 22 19 17 14 15 15 15 13 11 12 14 11 12 8 9 10 9 14 15 12 15 4 7
4 1 4 14 7 6 14 13 17 14 18 15 17 14 12 15 17 24 24 28 24 24 20 21 26 25 19 19 15 17 19 17 11 13 11 10 16 13 14 9 10 10 9 12 8 9 10 10 12
9 7 6 9 9 5 6 13 18 15 15 15 16 17 16 13 17 26 24 22 29 24 21 18 18 21 20 15 15 15 13 13 14 15 13 11 14 12 13 12 11 11 9 11 8 8 6 6 8
10 6 7 10 10 9 10 11 19 17 13 15 21 16 16 16 15 15 22 26 21 22 20 20 17 18 17 17 16 13 11 10 23 19 10 10 11 14 11 14 14 12 11 11 9 7 5 5 4
10 13 8 10 10 9 7 6 17 18 13 15 14 17 16 9 17 17 17 20 20 24 21 22 19 19 19 17 15 11 12 11 12 15 10 12 11 13 18 17 18 13 13 13 12 10 9 6 2
11 14 4 4 8 9 16 10 10 12 15 13 16 26 28 24 18 17 17 17 17 25 23 23 21 19 19 17 13 12 8 9 13 17 16 15 17 17 22 21 19 18 12 13 12 12 11 11 10
1 11 7 7 10 15 18 12 15 14 10 13 15 19 22 28 21 17 16 19 21 22 23 23 24 21 17 19 17 11 13 16 10 13 17 14 16 20 21 20 19 18 17 13 14 11 11 13 15
5 3 12 11 11 12 16 17 14 7 2 7 15 12 27 25 19 18 19 20 19 22 22 22 24 21 20 17 15 16 11 13 4 10 12 11 15 18 19 18 17 19 18 18 14 14 12 14 17
10 11 10 11 11 13 11 11 4 10 5 9 21 18 14 8 18 18 16 18 17 21 19 21 24 19 17 17 15 14 14 13 11 7 10 14 16 12 4 17 9 16 18 17 18 15 16 16 19
14 17 11 11 4 8 14 5 5 15 22 24 23 11 12 13 16 19 17 21 20 22 17 17 23 18 16 16 15 13 12 11 12 13 13 14 15 13 4 6 13 16 16 18 20 22 18 19 23
13 13 15 16 17 3 3 8 23 10 12 22 12 13 15 15 6 17 17 21 20 22 18 16 22 18 16 14 13 13 10 9 11 9 8 10 11 14 13 8 1 15 11 17 19 22 24 27 22
15 16 12 9 11 7 5 1 9 8 19 29 12 15 12 8 10 12 12 15 14 14 19 17 22 19 15 13 15 12 9 9 9 9 9 9 10 11 14 16 15 11 11 16 19 20 23 23 23
12 14 14 17 6 2 3 3 12 14 9 25 25 8 9 11 10 8 7 10 11 7 9 16 12 13 7 7 10 5 4 5 6 6 8 9 8 9 10 11 13 13 14 16 19 22 22 25 28
11 14 9 9 4 10 4 10 13 18 19 17 16 12 13 15 14 11 11 17 19 17 17 17 21 18 13 8 7 5 5 1 5 10 8 8 3 7 10 12 13 15 16 18 17 21 23 27 26
Wind_Direction
282 265 248 287 13 239 77 68 50 7 85 79 99 87 85 159 166 124 147 132 135 140 142 142 143 143 137 140 141 138 132 127 121 114 110 106 101 99 97 97 96 99 103 106 102 110 116 120 119
275 273 247 61 46 73 86 112 121 64 46 39 91 138 74 92 98 132 119 137 138 140 143 143 147 146 141 141 142 137 133 128 123 124 119 113 106 102 100 98 100 105 106 113 120 122 122 128 133
264 267 292 112 214 80 169 81 64 74 65 46 72 55 58 108 130 124 134 135 136 140 144 147 149 146 146 142 142 133 130 130 128 128 123 117 111 106 101 100 111 118 124 134 139 142 140 138 140
246 234 76 123 163 138 174 65 97 62 74 70 93 74 106 115 110 127 139 136 135 138 133 150 154 152 148 141 138 136 137 130 126 125 123 118 105 84 74 86 143 156 162 165 170 170 165 163 153
244 264 67 100 67 86 96 124 95 88 84 72 84 113 93 108 126 130 134 139 133 121 131 139 148 149 150 149 145 137 137 134 129 128 115 98 86 84 348 268 246 222 185 183 185 179 187 179 170
278 104 60 19 57 46 58 103 99 89 87 77 104 120 117 112 136 123 141 134 139 133 134 137 143 147 147 149 150 140 138 138 136 115 108 116 122 3 285 252 246 230 208 189 187 182 182 182 184
255 67 170 58 25 77 69 90 100 255 111 144 108 115 135 129 149 127 119 133 139 130 133 136 141 144 147 149 148 147 146 146 140 128 112 59 333 297 282 257 227 221 213 205 188 186 187 188 192
5 32 79 126 164 64 83 76 100 111 110 116 134 132 139 139 149 135 133 132 130 140 137 143 143 145 147 149 153 155 162 162 126 127 125 123 308 304 294 275 240 211 209 211 203 195 194 196 191
51 17 100 82 95 125 114 94 103 125 111 90 82 142 137 148 148 139 129 133 128 137 147 152 158 155 164 169 163 179 168 173 155 159 130 99 285 301 275 274 249 222 213 212 205 199 203 202 207
217 100 101 93 104 82 75 58 86 6 111 111 107 138 136 157 155 146 136 149 155 151 153 158 156 160 172 175 178 192 198 240 244 258 260 273 314 345 308 257 229 227 225 222 214 206 217 213 221
305 84 68 97 223 89 105 27 128 174 154 128 120 141 144 165 155 162 155 150 159 150 156 166 159 169 181 183 196 211 234 242 257 246 266 250 239 225 212 217 209 220 231 222 228 224 214 221 241
84 123 92 66 127 106 100 176 69 62 111 117 128 144 154 172 136 189 160 156 142 147 163 163 164 172 188 189 200 217 233 257 263 233 260 247 251 265 247 200 197 244 221 218 212 211 220 260 242
120 108 117 138 124 112 82 83 84 89 97 117 127 141 156 171 156 176 153 152 138 152 161 165 164 181 187 185 213 227 234 263 255 242 240 226 251 285 281 188 211 235 274 231 225 230 226 225 219
107 143 135 176 132 58 117 108 102 97 114 119 144 156 160 165 162 136 113 191 154 149 151 173 167 185 184 189 214 217 222 236 237 224 227 249 249 280 179 248 249 196 177 223 247 230 238 232 226
155 179 166 126 142 88 27 132 103 113 128 143 141 157 150 168 156 148 158 167 151 171 164 174 174 182 189 198 221 215 221 201 251 231 218 214 218 228 244 256 273 237 229 250 238 235 242 243 262
224 209 91 127 152 137 122 130 127 139 150 142 150 143 154 149 157 152 168 173 156 144 170 180 175 181 185 196 208 214 213 235 247 240 235 236 230 238 228 255 245 264 250 244 250 235 231 239 250
205 113 209 153 219 160 138 134 150 168 149 139 149 153 157 155 139 147 131 140 167 163 167 169 176 183 182 197 198 208 212 214 226 233 231 221 219 215 244 234 255 266 253 244 262 258 232 255 281
78 336 201 140 169 259 155 140 157 183 153 161 155 152 154 165 161 166 167 170 173 160 174 165 177 179 185 195 191 207 217 223 218 214 229 224 219 208 223 247 242 249 247 249 257 229 244 225 275
272 189 144 112 137 244 245 156 164 183 181 165 166 164 162 172 164 159 170 160 154 168 167 172 186 169 179 190 205 211 214 228 241 232 216 220 215 209 218 248 244 234 232 230 204 217 230 243 290
232 233 229 148 160 216 221 188 160 184 202 171 115 248 165 164 151 153 170 168 180 165 166 175 189 176 186 204 219 213 214 184 241 234 215 209 224 226 223 237 239 236 229 239 235 224 218 240 277
239 252 113 292 168 214 267 242 161 183 189 172 180 92 328 213 158 161 175 175 175 163 172 175 186 188 195 211 217 220 220 217 193 225 218 215 227 235 223 228 235 232 225 233 235 239 225 198 223
225 330 90 240 275 249 197 218 204 181 178 206 190 137 194 225 157 161 170 179 177 160 174 178 183 188 197 212 230 230 237 236 217 224 214 217 225 216 225 228 222 235 229 233 229 230 223 214 207
126 225 281 256 253 254 249 222 178 165 207 190 217 171 146 264 158 161 171 178 172 165 169 175 179 191 202 200 214 227 225 239 229 238 223 201 210 212 216 222 217 224 232 235 236 243 215 222 224
85 265 231 231 242 261 259 226 149 145 127 330 215 201 167 210 155 157 174 163 168 163 167 173 174 186 200 197 215 227 249 265 268 263 225 223 225 226 212 217 214 212 224 233 235 240 228 229 235
240 249 251 224 222 235 354 334 134 144 38 297 275 196 201 180 161 161 164 155 168 156 168 169 170 182 194 203 208 220 241 260 271 266 278 298 302 318 336 228 234 228 222 231 239 226 236 240 236
209 232 254 281 293 291 310 48 189 150 153 228 255 202 212 220 173 169 161 155 157 152 171 176 165 175 195 204 209 217 224 232 262 276 277 291 302 316 315 328 323 245 224 228 233 234 234 235 241
263 256 284 291 284 223 65 34 14 333 259 226 188 198 198 217 155 177 147 158 152 155 167 175 160 171 188 202 208 213 218 238 257 268 279 294 312 320 320 335 266 248 250 240 240 238 240 232 233
250 275 298 235 259 262 339 307 196 32 316 320 180 190 178 168 108 124 132 107 138 164 169 182 165 174 189 207 194 203 221 228 249 260 275 289 311 324 323 324 318 300 271 263 244 239 241 242 235
221 250 261 275 308 315 185 225 156 155 135 251 247 153 123 116 111 109 107 137 170 168 147 168 153 137 147 154 138 145 166 220 225 249 261 269 288 313 312 310 308 298 287 266 261 251 244 243 242
235 225 264 265 17 316 215 244 176 171 157 240 248 158 152 135 120 117 103 79 72 73 65 73 94 105 107 110 117 150 159 209 239 245 269 278 321 324 320 319 312 298 293 281 277 270 261 251 246